This is the latest recevied weather packets stored in our database for station/object IU1INZ-13. If no packets are shown the sender has not sent any weather packets the latest 10 day(s).
| Time | Temp. | Humidity | Pressure | Rain* | Wind** | Luminosity | Snow |
|---|---|---|---|---|---|---|---|
| 1777841149 | 16.11° C | 64% | 1017.8 hPa | 0 mm | - | - | - |
| 1777840248 | 16.67° C | 64% | 1017.9 hPa | 0 mm | - | - | - |
| 1777839341 | 17.22° C | 61% | 1017.7 hPa | 0 mm | - | - | - |
| 1777838434 | 17.22° C | 61% | 1017.8 hPa | 0 mm | - | - | - |
| 1777837534 | 17.78° C | 61% | 1017.5 hPa | 0 mm | - | - | - |
| 1777836642 | 17.78° C | 63% | 1017.5 hPa | 0 mm | - | - | - |
| 1777835735 | 18.33° C | 61% | 1017.3 hPa | 0 mm | - | - | - |
| 1777834844 | 18.33° C | 61% | 1017.3 hPa | 0 mm | - | - | - |
| 1777833934 | 18.89° C | 58% | 1017.1 hPa | 0 mm | - | - | - |
| 1777833045 | 18.89° C | 58% | 1017.1 hPa | 0 mm | - | - | - |
| 1777832135 | 18.89° C | 57% | 1017 hPa | 0 mm | - | - | - |
| 1777831244 | 20° C | 55% | 1016.9 hPa | 0 mm | - | - | - |
| 1777830334 | 20° C | 53% | 1016.9 hPa | 0 mm | - | - | - |
| 1777829432 | 20° C | 51% | 1017 hPa | 0 mm | - | - | - |
| 1777828541 | 20° C | 51% | 1017 hPa | 0 mm | - | - | - |
| 1777827642 | 20.56° C | 50% | 1017.2 hPa | 0 mm | - | - | - |
| 1777826734 | 20.56° C | 49% | 1017.2 hPa | 0 mm | - | - | - |
| 1777825834 | 20.56° C | 49% | 1017.2 hPa | 0 mm | - | - | - |
| 1777824931 | 20.56° C | 48% | 1017.2 hPa | 0 mm | - | - | - |
| 1777824039 | 20.56° C | 49% | 1017.1 hPa | 0 mm | - | - | - |
| 1777823136 | 20.56° C | 49% | 1017.4 hPa | 0 mm | - | - | - |
| 1777822233 | 20.56° C | 47% | 1017.3 hPa | 0 mm | - | - | - |
| 1777821330 | 21.11° C | 45% | 1017.5 hPa | 0 mm | - | - | - |
| 1777820432 | 21.11° C | 46% | 1017.6 hPa | 0 mm | - | - | - |
| 1777819532 | 21.11° C | 45% | 1017.7 hPa | 0 mm | - | - | - |
* Rain latest hour (hover to see other rain measurements)
** Current wind speed in m/s (hover to see current wind gust speed)